User: anonymous   Login
Location: Quebec
(46.8000°N, 71.2500°W)
Time: 06:54:26
(UTC-05:00)
Language:

CZ-4B R/B - Orbit

View from above orbital plane
View from above orbital plane
View from above satellite
View from above satellite

Ground track
Ground track

The orbit data is extracted from the following two-line orbital elements,

1 29093U 06015B   16342.86395811  .00004214  00000-0  10600-3 0  9993
2 29093  97.4879  83.5469 0064883 285.4641  73.9444 15.38373495588104
Epoch (UTC): 07 December 2016 20:44:05
Eccentricity: 0.0064883
inclination: 97.4879°
perigee height: 406 km
apogee height: 495 km
right ascension of ascending node: 83.5469°
argument of perigee: 285.4641°
revolutions per day: 15.38373495
mean anomaly at epoch: 73.9444°
orbit number at epoch: 58810

The dashed part of the orbit path shows where the satellite is in the earth's shadow,  

DLR